| time (UTC) | temp F | wind direction | speed MPH | gust MPH | rain 1hr in | rain 24hr in | rain mn in | humidity % | barometer mb |
| 20260901051822 | 83 | 167 | 0.0 | 2.0 | 0.00 | 0.05 | 0.04 | 78 | 1015.6 |
| 20260901051318 | 83 | 168 | 0.0 | 3.0 | 0.00 | 0.05 | 0.04 | 78 | 1015.6 |
| 20260901050833 | 83 | 162 | 0.0 | 3.0 | 0.00 | 0.05 | 0.04 | 78 | 1015.7 |
| 20260901050330 | 83 | 161 | 1.0 | 3.0 | 0.00 | 0.05 | 0.04 | 78 | 1015.8 |
| 20260901045817 | 83 | 163 | 1.0 | 5.0 | 0.00 | 0.05 | 0.04 | 77 | 1016.0 |
| 20260901045313 | 83 | 153 | 2.0 | 5.0 | 0.00 | 0.05 | 0.04 | 77 | 1016.0 |
| 20260901044809 | 83 | 125 | 0.0 | 3.0 | 0.00 | 0.05 | 0.04 | 77 | 1016.0 |
| 20260901044324 | 83 | 151 | 1.0 | 3.0 | 0.00 | 0.05 | 0.04 | 78 | 1016.0 |
| 20260901043813 | 83 | 163 | 0.0 | 3.0 | 0.00 | 0.05 | 0.04 | 78 | 1015.9 |
| 20260901043329 | 83 | 163 | 0.0 | 3.0 | 0.00 | 0.05 | 0.04 | 78 | 1015.8 |
| 20260901042824 | 83 | 168 | 0.0 | 2.0 | 0.00 | 0.05 | 0.04 | 78 | 1015.8 |
| 20260901042333 | 83 | 92 | 0.0 | 3.0 | 0.00 | 0.05 | 0.04 | 78 | 1015.8 |
| 20260901041311 | 83 | 172 | 0.0 | 3.0 | 0.00 | 0.05 | 0.04 | 78 | 1015.7 |
| 20260901040828 | 83 | 149 | 1.0 | 3.0 | 0.00 | 0.05 | 0.04 | 78 | 1015.8 |
| 20260901040324 | 83 | 161 | 1.0 | 5.0 | 0.00 | 0.05 | 0.04 | 77 | 1015.8 |
| 20260901035820 | 83 | 148 | 1.0 | 5.0 | 0.00 | 0.05 | 0.04 | 77 | 1015.8 |
| 20260901035317 | 83 | 179 | 1.0 | 4.0 | 0.00 | 0.05 | 0.04 | 77 | 1015.8 |
| 20260901034813 | 83 | 157 | 0.0 | 5.0 | 0.00 | 0.05 | 0.04 | 77 | 1015.8 |
| 20260901034309 | 83 | 74 | 0.0 | 3.0 | 0.00 | 0.05 | 0.04 | 77 | 1015.9 |
| 20260901033826 | 83 | 72 | 0.0 | 4.0 | 0.00 | 0.05 | 0.04 | 77 | 1015.8 |
| 20260901033322 | 83 | 67 | 1.0 | 4.0 | 0.01 | 0.05 | 0.04 | 77 | 1015.7 |
| 20260901032819 | 83 | 171 | 0.0 | 2.0 | 0.01 | 0.05 | 0.04 | 76 | 1015.7 |
| 20260901032329 | 83 | 159 | 0.0 | 2.0 | 0.01 | 0.05 | 0.04 | 76 | 1015.6 |
| 20260901031845 | 83 | 148 | 0.0 | 6.0 | 0.01 | 0.05 | 0.04 | 76 | 1015.6 |
| 20260901031320 | 83 | 102 | 1.0 | 6.0 | 0.01 | 0.05 | 0.04 | 76 | 1015.6 |
| 20260901030817 | 83 | 119 | 1.0 | 6.0 | 0.01 | 0.05 | 0.04 | 76 | 1015.4 |
| 20260901030333 | 83 | 137 | 2.0 | 5.0 | 0.01 | 0.05 | 0.04 | 76 | 1015.3 |
| 20260901025849 | 83 | 87 | 1.0 | 7.0 | 0.01 | 0.05 | 0.04 | 76 | 1015.3 |
| 20260901025326 | 83 | 139 | 0.0 | 7.0 | 0.01 | 0.05 | 0.04 | 76 | 1015.3 |
| 20260901024820 | 83 | 79 | 2.0 | 7.0 | 0.01 | 0.05 | 0.04 | 76 | 1015.3 |
| 20260901024316 | 83 | 118 | 1.0 | 4.0 | 0.01 | 0.05 | 0.04 | 76 | 1015.4 |
| 20260901023811 | 83 | 122 | 1.0 | 5.0 | 0.01 | 0.05 | 0.04 | 76 | 1015.4 |
| 20260901023326 | 83 | 85 | 1.0 | 5.0 | 0.00 | 0.04 | 0.03 | 76 | 1015.3 |
| 20260901022824 | 83 | 128 | 1.0 | 3.0 | 0.00 | 0.04 | 0.03 | 76 | 1015.2 |
| 20260901022320 | 83 | 166 | 1.0 | 3.0 | 0.00 | 0.04 | 0.03 | 76 | 1015.2 |
| 20260901021836 | 83 | 153 | 0.0 | 3.0 | 0.00 | 0.04 | 0.03 | 75 | 1015.2 |
| 20260901021311 | 83 | 153 | 0.0 | 5.0 | 0.00 | 0.04 | 0.03 | 75 | 1015.3 |
| 20260901020823 | 83 | 126 | 1.0 | 5.0 | 0.00 | 0.04 | 0.03 | 75 | 1015.3 |
| 20260901020318 | 83 | 80 | 0.0 | 5.0 | 0.00 | 0.04 | 0.03 | 75 | 1015.2 |
| 20260901015833 | 83 | 90 | 0.0 | 5.0 | 0.00 | 0.04 | 0.03 | 75 | 1015.2 |
| 20260901015349 | 84 | 84 | 1.0 | 5.0 | 0.00 | 0.04 | 0.03 | 75 | 1015.2 |
| 20260901014824 | 84 | 89 | 1.0 | 3.0 | 0.00 | 0.04 | 0.03 | 75 | 1015.2 |
| 20260901014319 | 84 | 90 | 0.0 | 4.0 | 0.00 | 0.04 | 0.03 | 74 | 1015.1 |
| 20260901013816 | 84 | 95 | 1.0 | 5.0 | 0.00 | 0.04 | 0.03 | 74 | 1015.0 |
| 20260901013311 | 84 | 85 | 2.0 | 5.0 | 0.00 | 0.04 | 0.03 | 74 | 1014.9 |
| 20260901012827 | 84 | 91 | 1.0 | 6.0 | 0.00 | 0.04 | 0.03 | 73 | 1014.8 |
| 20260901012324 | 84 | 65 | 2.0 | 8.0 | 0.00 | 0.04 | 0.03 | 73 | 1014.7 |
| 20260901011817 | 84 | 15 | 2.0 | 8.0 | 0.00 | 0.04 | 0.03 | 73 | 1014.6 |
| 20260901011313 | 84 | 202 | 2.0 | 7.0 | 0.00 | 0.04 | 0.03 | 72 | 1014.6 |
| 20260901010828 | 84 | 90 | 2.0 | 7.0 | 0.00 | 0.04 | 0.03 | 72 | 1014.6 |
| 20260901010324 | 84 | 87 | 1.0 | 6.0 | 0.00 | 0.04 | 0.03 | 72 | 1014.5 |
| 20260901005822 | 84 | 83 | 0.0 | 8.0 | 0.00 | 0.04 | 0.03 | 72 | 1014.5 |
| 20260901005318 | 84 | 107 | 1.0 | 5.0 | 0.00 | 0.04 | 0.03 | 72 | 1014.5 |
| 20260901004813 | 85 | 144 | 1.0 | 3.0 | 0.00 | 0.04 | 0.03 | 71 | 1014.4 |
| 20260901004328 | 85 | 120 | 1.0 | 4.0 | 0.00 | 0.04 | 0.03 | 71 | 1014.4 |
| 20260901003824 | 85 | 127 | 0.0 | 6.0 | 0.00 | 0.04 | 0.03 | 70 | 1014.4 |
| 20260901003320 | 85 | 98 | 1.0 | 6.0 | 0.00 | 0.04 | 0.03 | 70 | 1014.5 |
| 20260901002817 | 85 | 160 | 2.0 | 5.0 | 0.00 | 0.04 | 0.03 | 69 | 1014.4 |
| 20260901002333 | 85 | 158 | 2.0 | 8.0 | 0.00 | 0.04 | 0.03 | 69 | 1014.4 |
| 20260901001846 | 85 | 173 | 2.0 | 8.0 | 0.00 | 0.04 | 0.03 | 69 | 1014.5 |
| 20260901001323 | 86 | 229 | 2.0 | 5.0 | 0.00 | 0.04 | 0.03 | 69 | 1014.5 |
| 20260901000839 | 86 | 161 | 1.0 | 5.0 | 0.00 | 0.04 | 0.03 | 69 | 1014.6 |
| 20260901000336 | 86 | 125 | 1.0 | 7.0 | 0.00 | 0.04 | 0.03 | 68 | 1014.5 |
| 20260831235832 | 86 | 107 | 2.0 | 7.0 | 0.00 | 0.04 | 0.03 | 68 | 1014.5 |
| 20260831235346 | 86 | 103 | 2.0 | 11.0 | 0.00 | 0.04 | 0.03 | 68 | 1014.6 |
| 20260831234822 | 86 | 84 | 3.0 | 11.0 | 0.00 | 0.04 | 0.03 | 67 | 1014.6 |
| 20260831234317 | 86 | 78 | 1.0 | 5.0 | 0.00 | 0.04 | 0.03 | 67 | 1014.7 |
| 20260831233814 | 87 | 65 | 2.0 | 9.0 | 0.00 | 0.04 | 0.03 | 66 | 1014.8 |
| 20260831233330 | 87 | 49 | 2.0 | 9.0 | 0.00 | 0.04 | 0.03 | 66 | 1014.8 |
| 20260831232310 | 87 | 123 | 3.0 | 9.0 | 0.00 | 0.04 | 0.03 | 65 | 1014.9 |
| 20260831231854 | 87 | 99 | 2.0 | 9.0 | 0.00 | 0.05 | 0.03 | 65 | 1014.8 |
| 20260831231349 | 87 | 105 | 2.0 | 9.0 | 0.00 | 0.05 | 0.03 | 66 | 1014.9 |
| 20260831230825 | 88 | 121 | 0.0 | 5.0 | 0.00 | 0.05 | 0.03 | 64 | 1014.9 |
| 20260831230320 | 88 | 155 | 2.0 | 5.0 | 0.00 | 0.05 | 0.03 | 63 | 1015.0 |
| 20260831225839 | 88 | 101 | 1.0 | 8.0 | 0.00 | 0.05 | 0.03 | 63 | 1015.0 |
| 20260831225313 | 88 | 28 | 4.0 | 8.0 | 0.00 | 0.05 | 0.03 | 63 | 1015.0 |
| 20260831224810 | 88 | 148 | 1.0 | 8.0 | 0.00 | 0.05 | 0.03 | 65 | 1015.1 |
| 20260831224324 | 88 | 161 | 327.0 | 327.0 | 0.00 | 0.00 | 0.03 | 65 | 1015.1 |
| 20260831223817 | 88 | 92 | 2.0 | 10.0 | 0.00 | 0.05 | 0.03 | 65 | 1015.1 |
| 20260831223313 | 88 | 61 | 3.0 | 8.0 | 0.00 | 0.05 | 0.03 | 65 | 1015.2 |
| 20260831222809 | 88 | 71 | 2.0 | 10.0 | 0.00 | 0.05 | 0.03 | 66 | 1015.1 |
| 20260831222326 | 88 | 111 | 3.0 | 10.0 | 0.01 | 0.05 | 0.03 | 64 | 1015.1 |
| 20260831221824 | 88 | 130 | 3.0 | 9.0 | 0.01 | 0.05 | 0.03 | 64 | 1015.1 |
| 20260831221319 | 88 | 86 | 2.0 | 8.0 | 0.01 | 0.05 | 0.03 | 64 | 1015.1 |
| 20260831220836 | 89 | 89 | 1.0 | 7.0 | 0.01 | 0.05 | 0.03 | 63 | 1015.1 |
| 20260831220309 | 88 | 84 | 2.0 | 8.0 | 0.01 | 0.05 | 0.03 | 63 | 1015.1 |
| 20260831215825 | 88 | 49 | 4.0 | 8.0 | 0.01 | 0.05 | 0.03 | 62 | 1015.0 |
| 20260831215320 | 89 | 71 | 4.0 | 8.0 | 0.01 | 0.05 | 0.03 | 63 | 1015.1 |
| 20260831214831 | 88 | 74 | 2.0 | 5.0 | 0.01 | 0.05 | 0.03 | 63 | 1015.1 |
| 20260831214345 | 88 | 121 | 1.0 | 9.0 | 0.01 | 0.05 | 0.03 | 64 | 1015.0 |
| 20260831213820 | 88 | 104 | 4.0 | 9.0 | 0.01 | 0.05 | 0.03 | 64 | 1014.9 |
| 20260831213317 | 88 | 89 | 3.0 | 9.0 | 0.01 | 0.05 | 0.03 | 64 | 1014.9 |
| 20260831212814 | 88 | 168 | 1.0 | 8.0 | 0.01 | 0.05 | 0.03 | 64 | 1014.9 |
| 20260831212329 | 89 | 73 | 3.0 | 10.0 | 0.00 | 0.04 | 0.02 | 64 | 1015.0 |
| 20260831211825 | 89 | 95 | 2.0 | 7.0 | 0.00 | 0.04 | 0.02 | 64 | 1015.1 |
| 20260831211321 | 89 | 181 | 2.0 | 8.0 | 0.00 | 0.04 | 0.02 | 65 | 1015.1 |
| 20260831210818 | 89 | 107 | 3.0 | 8.0 | 0.00 | 0.04 | 0.02 | 65 | 1015.1 |
| 20260831210314 | 89 | 87 | 2.0 | 7.0 | 0.00 | 0.04 | 0.02 | 66 | 1015.2 |
| 20260831205312 | 88 | 173 | 4.0 | 11.0 | 0.00 | 0.04 | 0.02 | 66 | 1015.3 |
| 20260831204829 | 88 | 78 | 3.0 | 13.0 | 0.00 | 0.04 | 0.02 | 65 | 1015.2 |
| 20260831204319 | 89 | 159 | 5.0 | 12.0 | 0.00 | 0.04 | 0.02 | 65 | 1015.2 |
| 20260831203828 | 89 | 180 | 2.0 | 6.0 | 0.00 | 0.04 | 0.02 | 66 | 1015.2 |
| 20260831203342 | 88 | 68 | 2.0 | 10.0 | 0.00 | 0.04 | 0.02 | 67 | 1015.2 |
| 20260831202818 | 88 | 58 | 1.0 | 7.0 | 0.00 | 0.04 | 0.02 | 68 | 1015.2 |
| 20260831202312 | 88 | 117 | 3.0 | 9.0 | 0.00 | 0.04 | 0.02 | 68 | 1015.3 |
| 20260831201829 | 88 | 192 | 4.0 | 9.0 | 0.00 | 0.04 | 0.02 | 66 | 1015.4 |
| 20260831201325 | 89 | 109 | 4.0 | 11.0 | 0.00 | 0.04 | 0.02 | 65 | 1015.4 |
| 20260831200821 | 89 | 67 | 4.0 | 11.0 | 0.00 | 0.04 | 0.02 | 65 | 1015.4 |
| 20260831200317 | 90 | 80 | 5.0 | 8.0 | 0.00 | 0.04 | 0.02 | 64 | 1015.5 |
| 20260831195835 | 90 | 143 | 2.0 | 8.0 | 0.00 | 0.04 | 0.02 | 65 | 1015.5 |
| 20260831195349 | 89 | 167 | 2.0 | 7.0 | 0.00 | 0.04 | 0.02 | 65 | 1015.6 |
| 20260831194824 | 89 | 65 | 2.0 | 6.0 | 0.00 | 0.04 | 0.02 | 67 | 1015.6 |
| 20260831194321 | 88 | 147 | 2.0 | 6.0 | 0.00 | 0.04 | 0.02 | 66 | 1015.8 |
| 20260831193817 | 88 | 114 | 2.0 | 7.0 | 0.00 | 0.04 | 0.02 | 67 | 1015.8 |
| 20260831193334 | 88 | 155 | 2.0 | 7.0 | 0.00 | 0.04 | 0.02 | 68 | 1015.9 |
| 20260831192850 | 88 | 130 | 2.0 | 9.0 | 0.00 | 0.04 | 0.02 | 67 | 1015.9 |
| 20260831192322 | 88 | 169 | 2.0 | 5.0 | 0.00 | 0.04 | 0.02 | 67 | 1015.9 |
| 20260831191839 | 88 | 130 | 2.0 | 7.0 | 0.00 | 0.04 | 0.02 | 68 | 1015.9 |
| 20260831191334 | 88 | 148 | 3.0 | 7.0 | 0.00 | 0.04 | 0.02 | 68 | 1015.9 |
| 20260831190845 | 88 | 127 | 3.0 | 7.0 | 0.00 | 0.04 | 0.02 | 67 | 1015.9 |
| 20260831190320 | 88 | 157 | 2.0 | 7.0 | 0.00 | 0.04 | 0.02 | 68 | 1016.0 |
| 20260831185816 | 88 | 146 | 3.0 | 8.0 | 0.00 | 0.04 | 0.02 | 67 | 1016.0 |
| 20260831185312 | 88 | 130 | 2.0 | 8.0 | 0.00 | 0.04 | 0.02 | 67 | 1016.2 |
| 20260831184828 | 89 | 98 | 2.0 | 8.0 | 0.00 | 0.04 | 0.02 | 66 | 1016.2 |
| 20260831184325 | 89 | 126 | 2.0 | 9.0 | 0.00 | 0.04 | 0.02 | 67 | 1016.2 |
| 20260831183820 | 89 | 149 | 4.0 | 9.0 | 0.00 | 0.04 | 0.02 | 67 | 1016.2 |
| 20260831183314 | 88 | 166 | 3.0 | 8.0 | 0.00 | 0.04 | 0.02 | 68 | 1016.1 |
| 20260831182830 | 88 | 152 | 3.0 | 6.0 | 0.00 | 0.04 | 0.02 | 70 | 1016.2 |
| 20260831182346 | 87 | 66 | 2.0 | 8.0 | 0.00 | 0.04 | 0.02 | 71 | 1016.3 |
| 20260831181813 | 85 | 85 | 3.0 | 8.0 | 0.00 | 0.05 | 0.02 | 73 | 1016.4 |
| 20260831181322 | 84 | 155 | 2.0 | 4.0 | 0.00 | 0.05 | 0.02 | 76 | 1016.6 |
| 20260831180819 | 82 | 76 | 1.0 | 4.0 | 0.00 | 0.05 | 0.02 | 77 | 1016.7 |
| 20260831180313 | 82 | 57 | 2.0 | 5.0 | 0.00 | 0.05 | 0.02 | 75 | 1016.7 |
| 20260831175828 | 82 | 85 | 2.0 | 5.0 | 0.01 | 0.05 | 0.02 | 75 | 1016.8 |
| 20260831174829 | 84 | 75 | 2.0 | 9.0 | 0.01 | 0.05 | 0.02 | 75 | 1017.0 |
| 20260831174326 | 85 | 127 | 2.0 | 9.0 | 0.01 | 0.05 | 0.02 | 74 | 1016.9 |
| 20260831173823 | 85 | 156 | 3.0 | 7.0 | 0.01 | 0.05 | 0.02 | 73 | 1016.8 |
| 20260831173318 | 86 | 140 | 2.0 | 9.0 | 0.01 | 0.05 | 0.02 | 73 | 1016.7 |
| 20260831172813 | 86 | 117 | 3.0 | 9.0 | 0.01 | 0.05 | 0.02 | 74 | 1016.8 |
| 20260831172330 | 87 | 155 | 3.0 | 11.0 | 0.01 | 0.05 | 0.02 | 71 | 1016.8 |
| 20260831171824 | 87 | 131 | 4.0 | 12.0 | 0.01 | 0.05 | 0.02 | 69 | 1016.7 |
| 20260831171319 | 87 | 61 | 4.0 | 12.0 | 0.01 | 0.05 | 0.02 | 68 | 1016.7 |
| 20260831170828 | 87 | 120 | 1.0 | 8.0 | 0.01 | 0.05 | 0.02 | 70 | 1016.7 |
| 20260831170325 | 88 | 49 | 2.0 | 9.0 | 0.01 | 0.05 | 0.02 | 69 | 1016.7 |
| 20260831165323 | 88 | 56 | 3.0 | 7.0 | 0.00 | 0.04 | 0.01 | 70 | 1016.8 |
| 20260831164816 | 87 | 132 | 2.0 | 8.0 | 0.00 | 0.04 | 0.01 | 71 | 1016.7 |
| 20260831164311 | 87 | 59 | 2.0 | 8.0 | 0.00 | 0.04 | 0.01 | 73 | 1016.8 |
| 20260831163853 | 86 | 168 | 3.0 | 10.0 | 0.00 | 0.04 | 0.01 | 73 | 1016.8 |
| 20260831163347 | 86 | 94 | 3.0 | 10.0 | 0.00 | 0.04 | 0.01 | 72 | 1016.8 |
| 20260831162824 | 85 | 92 | 1.0 | 9.0 | 0.00 | 0.04 | 0.01 | 77 | 1016.9 |
| 20260831162320 | 84 | 99 | 4.0 | 9.0 | 0.00 | 0.04 | 0.01 | 75 | 1017.0 |
| 20260831161835 | 84 | 66 | 4.0 | 8.0 | 0.00 | 0.04 | 0.01 | 76 | 1017.2 |
| 20260831161351 | 83 | 80 | 3.0 | 8.0 | 0.00 | 0.04 | 0.01 | 77 | 1017.2 |
| 20260831160812 | 83 | 93 | 2.0 | 8.0 | 0.00 | 0.04 | 0.01 | 80 | 1017.3 |
| 20260831160313 | 82 | 75 | 3.0 | 7.0 | 0.00 | 0.04 | 0.01 | 80 | 1017.3 |
| 20260831155819 | 82 | 83 | 0.0 | 6.0 | 0.00 | 0.04 | 0.01 | 82 | 1017.2 |
| 20260831155320 | 81 | 65 | 2.0 | 7.0 | 0.00 | 0.04 | 0.01 | 80 | 1017.1 |
| 20260831154827 | 81 | 125 | 1.0 | 7.0 | 0.00 | 0.04 | 0.01 | 82 | 1017.1 |
| 20260831154308 | 81 | 76 | 0.0 | 4.0 | 0.00 | 0.04 | 0.01 | 82 | 1017.0 |
| 20260831153816 | 81 | 98 | 0.0 | 7.0 | 0.00 | 0.04 | 0.01 | 83 | 1017.1 |
| 20260831153317 | 81 | 77 | 1.0 | 7.0 | 0.00 | 0.04 | 0.01 | 83 | 1017.0 |
| 20260831152818 | 81 | 49 | 1.0 | 5.0 | 0.00 | 0.04 | 0.01 | 85 | 1017.0 |
| 20260831152326 | 81 | 182 | 0.0 | 2.0 | 0.00 | 0.04 | 0.01 | 84 | 1016.7 |
| 20260831151854 | 80 | 182 | 0.0 | 2.0 | 0.00 | 0.04 | 0.01 | 83 | 1016.7 |
| 20260831151314 | 80 | 182 | 1.0 | 2.0 | 0.00 | 0.04 | 0.01 | 83 | 1016.8 |
| 20260831150815 | 81 | 182 | 0.0 | 3.0 | 0.00 | 0.04 | 0.01 | 82 | 1016.8 |
| 20260831150322 | 81 | 182 | 0.0 | 3.0 | 0.00 | 0.04 | 0.01 | 81 | 1016.9 |
| 20260831145828 | 81 | 182 | 0.0 | 5.0 | 0.00 | 0.04 | 0.01 | 78 | 1016.8 |
| 20260831145348 | 83 | 180 | 2.0 | 11.0 | 0.00 | 0.04 | 0.01 | 73 | 1016.7 |
| 20260831144834 | 86 | 161 | 4.0 | 11.0 | 0.00 | 0.04 | 0.01 | 70 | 1016.8 |
| 20260831144316 | 88 | 151 | 2.0 | 9.0 | 0.00 | 0.04 | 0.01 | 68 | 1016.6 |
| 20260831143823 | 88 | 75 | 1.0 | 9.0 | 0.00 | 0.04 | 0.01 | 69 | 1016.2 |
| 20260831143310 | 88 | 69 | 1.0 | 7.0 | 0.00 | 0.04 | 0.01 | 69 | 1016.2 |
| 20260831142819 | 87 | 85 | 3.0 | 8.0 | 0.00 | 0.04 | 0.01 | 69 | 1016.2 |
| 20260831142320 | 87 | 101 | 5.0 | 8.0 | 0.00 | 0.04 | 0.01 | 69 | 1016.1 |
| 20260831141821 | 87 | 104 | 3.0 | 9.0 | 0.00 | 0.04 | 0.01 | 70 | 1016.1 |
| 20260831141309 | 87 | 82 | 2.0 | 9.0 | 0.00 | 0.04 | 0.01 | 71 | 1016.2 |
| 20260831140824 | 87 | 63 | 2.0 | 9.0 | 0.00 | 0.04 | 0.01 | 71 | 1016.2 |
| 20260831140345 | 86 | 102 | 3.0 | 9.0 | 0.00 | 0.04 | 0.01 | 72 | 1016.2 |
| 20260831135831 | 86 | 168 | 2.0 | 9.0 | 0.00 | 0.04 | 0.01 | 73 | 1016.2 |
| 20260831135310 | 86 | 59 | 2.0 | 8.0 | 0.00 | 0.04 | 0.01 | 73 | 1016.2 |
| 20260831134837 | 85 | 166 | 1.0 | 6.0 | 0.00 | 0.04 | 0.01 | 75 | 1016.2 |
| 20260831134317 | 85 | 65 | 1.0 | 8.0 | 0.00 | 0.04 | 0.01 | 74 | 1016.1 |
| 20260831133845 | 85 | 75 | 1.0 | 5.0 | 0.00 | 0.04 | 0.01 | 76 | 1016.1 |
| 20260831133345 | 85 | 80 | 2.0 | 8.0 | 0.00 | 0.04 | 0.01 | 77 | 1016.0 |
| 20260831132812 | 84 | 84 | 3.0 | 8.0 | 0.00 | 0.04 | 0.01 | 77 | 1016.0 |
| 20260831132319 | 84 | 63 | 0.0 | 0.0 | 0.00 | 0.04 | 0.01 | 79 | 1015.9 |
| 20260831131820 | 83 | 107 | 0.0 | 0.0 | 0.00 | 0.04 | 0.01 | 80 | 1015.9 |
| 20260831131320 | 83 | 87 | 0.0 | 0.0 | 0.00 | 0.04 | 0.01 | 81 | 1015.8 |
| 20260831130827 | 82 | 90 | 0.0 | 0.0 | 0.00 | 0.04 | 0.01 | 82 | 1015.8 |
| 20260831130308 | 81 | 90 | 0.0 | 0.0 | 0.00 | 0.04 | 0.01 | 84 | 1015.7 |
| 20260831125810 | 80 | 221 | 0.0 | 0.0 | 0.00 | 0.04 | 0.01 | 86 | 1015.7 |
| 20260831124822 | 79 | 221 | 0.0 | 0.0 | 0.00 | 0.04 | 0.01 | 87 | 1015.7 |
| 20260831124322 | 79 | 221 | 0.0 | 0.0 | 0.01 | 0.04 | 0.01 | 87 | 1015.7 |
| 20260831123850 | 78 | 221 | 0.0 | 0.0 | 0.01 | 0.04 | 0.01 | 86 | 1015.6 |
| 20260831123309 | 78 | 221 | 0.0 | 0.0 | 0.01 | 0.04 | 0.01 | 86 | 1015.5 |
| 20260831122809 | 78 | 221 | 0.0 | 0.0 | 0.01 | 0.04 | 0.01 | 86 | 1015.4 |
| 20260831122315 | 78 | 221 | 0.0 | 0.0 | 0.01 | 0.04 | 0.01 | 85 | 1015.4 |
| 20260831121816 | 78 | 221 | 0.0 | 0.0 | 0.01 | 0.05 | 0.01 | 85 | 1015.3 |
| 20260831121325 | 78 | 221 | 0.0 | 0.0 | 0.01 | 0.05 | 0.01 | 85 | 1015.3 |
| 20260831120826 | 78 | 221 | 0.0 | 0.0 | 0.01 | 0.05 | 0.01 | 85 | 1015.2 |
| 20260831120326 | 78 | 221 | 0.0 | 0.0 | 0.01 | 0.05 | 0.01 | 85 | 1015.2 |
| 20260831115833 | 78 | 221 | 0.0 | 0.0 | 0.01 | 0.05 | 0.01 | 84 | 1015.1 |
| 20260831115314 | 78 | 221 | 0.0 | 0.0 | 0.01 | 0.05 | 0.01 | 84 | 1015.0 |
| 20260831114815 | 78 | 221 | 0.0 | 0.0 | 0.01 | 0.05 | 0.01 | 84 | 1015.0 |
| 20260831114316 | 78 | 221 | 0.0 | 0.0 | 0.00 | 0.04 | 0.00 | 83 | 1014.9 |
| 20260831113823 | 78 | 221 | 0.0 | 0.0 | 0.00 | 0.04 | 0.00 | 83 | 1014.9 |
| 20260831113325 | 78 | 221 | 0.0 | 0.0 | 0.00 | 0.04 | 0.00 | 82 | 1014.9 |
| 20260831112827 | 79 | 221 | 0.0 | 0.0 | 0.00 | 0.04 | 0.00 | 82 | 1014.9 |
| 20260831112333 | 79 | 221 | 0.0 | 0.0 | 0.00 | 0.04 | 0.00 | 81 | 1014.9 |
| 20260831111815 | 79 | 221 | 0.0 | 1.0 | 0.00 | 0.04 | 0.00 | 80 | 1014.9 |
| 20260831111342 | 79 | 221 | 0.0 | 2.0 | 0.00 | 0.04 | 0.00 | 80 | 1014.9 |
| 20260831110822 | 80 | 221 | 0.0 | 4.0 | 0.00 | 0.04 | 0.00 | 79 | 1014.9 |
| 20260831110350 | 80 | 194 | 1.0 | 7.0 | 0.00 | 0.04 | 0.00 | 77 | 1015.0 |
| 20260831105850 | 80 | 125 | 1.0 | 7.0 | 0.00 | 0.04 | 0.00 | 79 | 1015.0 |
| 20260831105335 | 80 | 121 | 0.0 | 0.0 | 0.00 | 0.04 | 0.00 | 81 | 1014.8 |
| 20260831104816 | 80 | 121 | 0.0 | 0.0 | 0.00 | 0.04 | 0.00 | 81 | 1014.8 |
| 20260831104322 | 80 | 121 | 0.0 | 0.0 | 0.00 | 0.04 | 0.00 | 81 | 1014.7 |
| 20260831103823 | 80 | 121 | 0.0 | 0.0 | 0.00 | 0.04 | 0.00 | 81 | 1014.8 |
| 20260831103325 | 80 | 121 | 0.0 | 0.0 | 0.00 | 0.04 | 0.00 | 81 | 1014.7 |
| 20260831102830 | 80 | 121 | 0.0 | 0.0 | 0.00 | 0.04 | 0.00 | 81 | 1014.7 |
| 20260831102312 | 80 | 121 | 0.0 | 0.0 | 0.00 | 0.04 | 0.00 | 81 | 1014.7 |
| 20260831101838 | 80 | 121 | 0.0 | 0.0 | 0.00 | 0.04 | 0.00 | 81 | 1014.7 |
| 20260831101330 | 80 | 121 | 0.0 | 0.0 | 0.00 | 0.04 | 0.00 | 81 | 1014.7 |
| 20260831100811 | 80 | 121 | 0.0 | 0.0 | 0.00 | 0.04 | 0.00 | 81 | 1014.7 |
| 20260831100313 | 80 | 121 | 0.0 | 0.0 | 0.00 | 0.04 | 0.00 | 81 | 1014.7 |
| 20260831095820 | 80 | 121 | 0.0 | 0.0 | 0.00 | 0.04 | 0.00 | 81 | 1014.6 |
| 20260831095327 | 80 | 121 | 0.0 | 0.0 | 0.00 | 0.04 | 0.00 | 82 | 1014.6 |
| 20260831094829 | 80 | 121 | 0.0 | 0.0 | 0.00 | 0.04 | 0.00 | 81 | 1014.6 |
| 20260831094335 | 80 | 121 | 0.0 | 0.0 | 0.00 | 0.04 | 0.00 | 81 | 1014.6 |
| 20260831093815 | 80 | 121 | 0.0 | 0.0 | 0.00 | 0.04 | 0.00 | 81 | 1014.4 |
| 20260831093316 | 80 | 121 | 0.0 | 0.0 | 0.00 | 0.04 | 0.00 | 81 | 1014.4 |
| 20260831092823 | 80 | 121 | 0.0 | 0.0 | 0.00 | 0.04 | 0.00 | 81 | 1014.5 |
| 20260831092324 | 81 | 121 | 0.0 | 0.0 | 0.00 | 0.04 | 0.00 | 81 | 1014.4 |
| 20260831091824 | 81 | 121 | 0.0 | 0.0 | 0.00 | 0.04 | 0.00 | 81 | 1014.4 |
| 20260831091329 | 81 | 121 | 0.0 | 0.0 | 0.00 | 0.04 | 0.00 | 81 | 1014.4 |
| 20260831090831 | 81 | 121 | 0.0 | 0.0 | 0.00 | 0.04 | 0.00 | 80 | 1014.3 |
| 20260831090317 | 81 | 121 | 0.0 | 0.0 | 0.00 | 0.04 | 0.00 | 80 | 1014.3 |
| 20260831085836 | 81 | 121 | 0.0 | 0.0 | 0.00 | 0.04 | 0.00 | 80 | 1014.3 |
| 20260831085322 | 81 | 121 | 0.0 | 0.0 | 0.00 | 0.04 | 0.00 | 80 | 1014.3 |
| 20260831084821 | 81 | 121 | 0.0 | 0.0 | 0.00 | 0.04 | 0.00 | 80 | 1014.3 |
| 20260831084323 | 81 | 121 | 0.0 | 0.0 | 0.00 | 0.04 | 0.00 | 79 | 1014.3 |
| 20260831083831 | 81 | 121 | 0.0 | 0.0 | 0.00 | 0.04 | 0.00 | 79 | 1014.3 |
| 20260831083329 | 81 | 121 | 0.0 | 0.0 | 0.00 | 0.04 | 0.00 | 79 | 1014.3 |
| 20260831082835 | 81 | 121 | 0.0 | 0.0 | 0.00 | 0.04 | 0.00 | 79 | 1014.4 |
| 20260831082316 | 81 | 121 | 0.0 | 0.0 | 0.00 | 0.04 | 0.00 | 78 | 1014.5 |
| 20260831081819 | 82 | 121 | 0.0 | 0.0 | 0.00 | 0.04 | 0.00 | 78 | 1014.5 |
| 20260831081321 | 82 | 121 | 0.0 | 0.0 | 0.00 | 0.04 | 0.00 | 78 | 1014.4 |
| 20260831080829 | 82 | 121 | 0.0 | 0.0 | 0.00 | 0.04 | 0.00 | 78 | 1014.3 |
| 20260831080310 | 82 | 121 | 0.0 | 0.0 | 0.00 | 0.04 | 0.00 | 77 | 1014.4 |
| 20260831075810 | 82 | 121 | 0.0 | 0.0 | 0.00 | 0.04 | 0.00 | 77 | 1014.5 |
| 20260831075311 | 82 | 121 | 0.0 | 0.0 | 0.00 | 0.04 | 0.00 | 77 | 1014.4 |
| 20260831074820 | 82 | 121 | 0.0 | 0.0 | 0.00 | 0.04 | 0.00 | 77 | 1014.5 |
| 20260831074322 | 82 | 121 | 0.0 | 0.0 | 0.00 | 0.04 | 0.00 | 77 | 1014.5 |
| 20260831073827 | 82 | 121 | 0.0 | 0.0 | 0.00 | 0.04 | 0.00 | 76 | 1014.5 |
| 20260831073330 | 82 | 121 | 0.0 | 0.0 | 0.00 | 0.04 | 0.00 | 76 | 1014.6 |
| 20260831072816 | 82 | 121 | 0.0 | 0.0 | 0.00 | 0.04 | 0.00 | 76 | 1014.5 |
| 20260831072329 | 82 | 121 | 0.0 | 0.0 | 0.00 | 0.04 | 0.00 | 76 | 1014.5 |
| 20260831071809 | 82 | 103 | 0.0 | 0.0 | 0.00 | 0.04 | 0.04 | 76 | 1014.5 |
| 20260831071330 | 82 | 76 | 0.0 | 0.0 | 0.00 | 0.04 | 0.04 | 76 | 1014.5 |
| 20260831070815 | 82 | 141 | 0.0 | 0.0 | 0.00 | 0.04 | 0.04 | 76 | 1014.6 |
| 20260831070316 | 82 | 60 | 0.0 | 0.0 | 0.00 | 0.04 | 0.04 | 76 | 1014.6 |
| 20260831065821 | 83 | 134 | 0.0 | 0.0 | 0.00 | 0.04 | 0.04 | 76 | 1014.6 |
| 20260831065320 | 83 | 68 | 0.0 | 3.0 | 0.00 | 0.04 | 0.04 | 76 | 1014.6 |
| 20260831064821 | 83 | 84 | 1.0 | 4.0 | 0.00 | 0.04 | 0.04 | 76 | 1014.8 |
| 20260831064329 | 83 | 65 | 1.0 | 5.0 | 0.00 | 0.04 | 0.04 | 76 | 1014.8 |
| 20260831063809 | 83 | 69 | 1.0 | 4.0 | 0.00 | 0.04 | 0.04 | 76 | 1014.8 |
| 20260831063317 | 83 | 69 | 1.0 | 5.0 | 0.00 | 0.04 | 0.04 | 76 | 1015.0 |
| 20260831062818 | 83 | 85 | 1.0 | 3.0 | 0.00 | 0.04 | 0.04 | 76 | 1015.0 |
| 20260831062325 | 83 | 68 | 0.0 | 3.0 | 0.00 | 0.04 | 0.04 | 76 | 1015.0 |
| 20260831061826 | 83 | 37 | 1.0 | 3.0 | 0.00 | 0.04 | 0.04 | 76 | 1015.1 |
| 20260831061327 | 83 | 65 | 0.0 | 5.0 | 0.00 | 0.04 | 0.04 | 76 | 1015.2 |
| 20260831060834 | 83 | 66 | 1.0 | 5.0 | 0.01 | 0.04 | 0.04 | 76 | 1015.1 |
| 20260831060315 | 83 | 75 | 0.0 | 7.0 | 0.01 | 0.04 | 0.04 | 76 | 1015.1 |
| 20260831055848 | 83 | 75 | 0.0 | 7.0 | 0.01 | 0.04 | 0.04 | 76 | 1015.1 |
| 20260831055328 | 83 | 104 | 0.0 | 4.0 | 0.01 | 0.04 | 0.04 | 76 | 1015.1 |
| 20260831054810 | 83 | 68 | 0.0 | 4.0 | 0.01 | 0.04 | 0.04 | 76 | 1015.2 |
| 20260831054311 | 83 | 160 | 0.0 | 3.0 | 0.01 | 0.04 | 0.04 | 76 | 1015.2 |
| 20260831053817 | 83 | 126 | 0.0 | 5.0 | 0.01 | 0.04 | 0.04 | 76 | 1015.3 |
| 20260831053325 | 83 | 126 | 1.0 | 5.0 | 0.01 | 0.04 | 0.04 | 76 | 1015.3 |
| 20260831052826 | 83 | 66 | 0.0 | 3.0 | 0.01 | 0.04 | 0.04 | 77 | 1015.3 |
| 20260831052333 | 83 | 71 | 1.0 | 7.0 | 0.01 | 0.04 | 0.04 | 77 | 1015.3 |